DW4326 Weather Reports


time (UTC)temp
F
wind
direction
speed
knots
gust
knots
rain 1hr
in
rain 24hr
in
rain mn
in
humidity
%
barometer
mb
20260831174502 76 177 0.9 2.6 0.00 0.03 0.01 53 1019.0
20260831173002 76 179 0.9 4.3 0.00 0.03 0.01 57 1018.8
20260831171502 76 192 0.9 4.3 0.00 0.03 0.01 61 1018.9
20260831170001 75 187 2.6 7.8 0.00 0.03 0.01 57 1019.3
20260831165149 76 185 0.0 6.1 0.00 0.03 0.01 58 1019.4
20260831162959 76 355 0.0 3.5 0.00 0.03 0.01 55 1019.5
20260831161501 76 169 0.0 1.7 0.00 0.03 0.01 53 1019.6
20260831160000 75 303 0.0 3.5 0.00 0.03 0.01 61 1019.7
20260831154502 74 233 0.0 2.6 0.00 0.03 0.01 59 1019.8
20260831152959 73 11 0.0 3.5 0.00 0.03 0.01 66 1019.9
20260831151458 71 168 0.0 3.5 0.00 0.03 0.01 68 1019.9
20260831145957 71 195 0.0 0.0 0.00 0.03 0.01 66 1019.8
20260831144457 70 255 0.0 0.0 0.00 0.03 0.01 76 1019.8
20260831142956 69 182 0.0 0.0 0.00 0.03 0.01 79 1020.1
20260831142208 68 182 0.0 4.3 0.00 0.03 0.01 77 1020.1
20260831135954 67 297 0.0 0.9 0.00 0.03 0.01 86 1020.0
20260831134453 64 304 0.0 0.0 0.00 0.03 0.01 91 1019.9
20260831134351 61 298 0.0 0.0 0.00 0.03 0.01 98 1020.1
20260831132153 59 299 0.0 0.0 0.00 0.03 0.01 99 1019.9
20260831125950 57 299 0.0 0.0 0.00 0.03 0.01 99 1020.1
20260831124449 54 299 0.0 0.0 0.00 0.03 0.01 98 1020.2
20260831122942 53 299 0.0 0.0 0.00 0.03 0.01 98 1020.1
20260831121441 52 299 0.0 0.0 0.00 0.03 0.01 97 1020.3
20260831115940 52 298 0.0 0.0 0.00 0.03 0.01 96 1020.5
20260831114442 52 299 0.0 0.0 0.00 0.03 0.01 96 1020.6
20260831112941 53 299 0.0 0.0 0.00 0.03 0.01 95 1020.6
20260831111440 53 299 0.0 0.0 0.00 0.03 0.01 95 1020.3
20260831105942 54 299 0.0 0.0 0.00 0.03 0.01 96 1020.3
20260831104442 54 299 0.0 0.0 0.00 0.03 0.01 97 1020.2
20260831102940 55 299 0.0 0.0 0.00 0.03 0.01 97 1020.1
20260831101441 55 299 0.0 0.0 0.00 0.03 0.01 97 1020.0
20260831095940 55 299 0.0 0.0 0.00 0.03 0.01 97 1020.0
20260831095838 55 298 0.0 0.0 0.00 0.03 0.01 97 1019.9
20260831092939 55 298 0.0 0.0 0.00 0.03 0.01 97 1019.7
20260831091437 55 298 0.0 0.0 0.00 0.03 0.01 96 1019.6
20260831085936 56 298 0.0 0.0 0.00 0.03 0.01 97 1019.4
20260831084433 56 298 0.0 0.0 0.00 0.03 0.01 97 1019.4
20260831082934 56 298 0.0 0.0 0.01 0.03 0.01 97 1019.4
20260831081425 56 298 0.0 0.0 0.01 0.03 0.01 97 1019.3
20260831075924 56 298 0.0 0.0 0.01 0.03 0.01 97 1019.1
20260831074425 56 298 0.0 0.0 0.01 0.03 0.01 97 1019.1
20260831072925 56 298 0.0 0.0 0.00 0.02 0.00 97 1018.9
20260831071425 57 298 0.0 0.0 0.00 0.02 0.00 96 1018.8
20260831065925 57 298 0.0 0.0 0.00 0.02 0.00 96 1018.7
20260831064420 58 298 0.0 0.0 0.00 0.02 0.00 96 1018.5
20260831062920 58 298 0.0 0.0 0.00 0.02 0.00 97 1018.5
20260831061420 58 298 0.0 0.0 0.00 0.02 0.00 97 1018.5
20260831055920 58 298 0.0 0.0 0.00 0.02 0.00 97 1018.6
20260831054420 58 298 0.0 0.0 0.00 0.02 0.00 96 1018.5
20260831052920 58 298 0.0 0.0 0.00 0.02 0.00 96 1018.5
20260831051421 59 298 0.0 0.0 0.00 0.02 0.00 96 1018.5
20260831045921 59 298 0.0 0.0 0.00 0.02 0.00 96 1018.7
20260831044422 60 298 0.0 0.0 0.00 0.02 0.00 96 1018.5
20260831042921 60 298 0.0 0.0 0.00 0.02 0.00 96 1018.4
20260831041419 61 298 0.0 0.0 0.00 0.02 0.00 96 1018.2
20260831035918 61 298 0.0 0.0 0.00 0.02 0.02 97 1018.1
20260831035112 61 298 0.0 0.0 0.00 0.02 0.02 96 1018.0
20260831032913 61 298 0.0 0.0 0.00 0.02 0.02 96 1018.0
20260831031413 61 298 0.0 0.0 0.00 0.02 0.02 97 1018.0
20260831031328 61 298 0.0 0.0 0.00 0.02 0.02 96 1018.1
20260831024408 61 298 0.0 0.0 0.00 0.02 0.02 96 1017.9
20260831022905 61 298 0.0 0.0 0.00 0.02 0.02 96 1018.0
20260831021400 62 298 0.0 0.0 0.00 0.02 0.02 96 1017.9
20260831015900 61 298 0.0 0.0 0.00 0.02 0.02 96 1018.0
20260831014357 62 298 0.0 0.0 0.00 0.02 0.02 95 1017.9
20260831012856 62 298 0.0 0.0 0.00 0.02 0.02 95 1017.4
20260831012048 62 298 0.0 0.0 0.00 0.02 0.02 95 1016.9
20260831005852 63 298 0.0 0.0 0.00 0.02 0.02 95 1017.1
20260831004351 63 298 0.0 0.0 0.00 0.02 0.02 95 1016.7
20260831002849 63 298 0.0 0.0 0.01 0.02 0.02 94 1016.7
20260831001349 64 298 0.0 0.0 0.02 0.02 0.02 94 1016.4
20260830235849 64 298 0.0 0.0 0.02 0.02 0.02 93 1016.2
20260830234346 65 294 0.0 0.0 0.02 0.02 0.02 93 1016.0
20260830232846 65 355 0.0 0.0 0.01 0.01 0.01 91 1016.0
20260830232037 66 355 0.9 5.2 0.00 0.00 0.00 90 1015.6
20260830225844 67 337 0.0 0.0 0.00 0.00 0.00 89 1015.8
20260830225049 67 23 0.0 0.0 0.00 0.00 0.00 88 1015.6
20260830222845 67 23 0.0 0.0 0.00 0.00 0.00 88 1015.7
20260830221344 68 23 0.0 0.0 0.00 0.00 0.00 87 1015.6
20260830215846 69 23 0.0 0.0 0.00 0.00 0.00 86 1015.5
20260830214344 69 23 0.0 0.0 0.00 0.00 0.00 85 1015.5
20260830212844 70 23 0.0 0.0 0.00 0.00 0.00 83 1015.4
20260830211342 71 23 0.0 0.0 0.00 0.00 0.00 80 1015.4
20260830205840 71 23 0.0 0.0 0.00 0.00 0.00 81 1015.5
20260830204341 71 23 0.0 0.0 0.00 0.00 0.00 79 1015.6
20260830202840 73 23 0.0 0.0 0.00 0.00 0.00 78 1015.8
20260830201342 74 23 0.0 0.0 0.00 0.00 0.00 74 1015.7
20260830200541 75 11 0.0 0.0 0.00 0.00 0.00 73 1015.9
20260830194341 76 355 0.0 0.0 0.00 0.00 0.00 62 1015.8
20260830192840 76 57 0.0 0.0 0.00 0.00 0.00 62 1016.2
20260830191340 76 119 0.0 0.0 0.00 0.00 0.00 59 1016.3
20260830185841 75 260 0.0 0.0 0.00 0.00 0.00 65 1016.4
20260830184338 72 5 0.0 0.0 0.00 0.00 0.00 76 1016.7
20260830182839 71 236 0.0 0.0 0.00 0.00 0.00 83 1016.9
20260830181340 70 236 0.0 0.0 0.00 0.00 0.00 83 1017.1